Flag for Brazil Weather past 2 weeks in Campo Grande, Mato Grosso Do Sul, Brazil

66 °F


Feels Like: 66 °F
Forecast: 64 / 81 °F
Wind: 12 mph from Southeast

Location: Campo Grande Aeroporto

Current Time: Oct 4, 2015 at 7:54:37 AM

Latest Report: Oct 4, 2015 at 7:00 AM

Visibility: 1 mi

Pressure: 30.07 "Hg (28.31 "Hg at 516m altitude)

Humidity: 100%

Dew point: 66 °F

Location of Campo GrandeLocation

Historic Weather in Campo Grande — Graph


Campo Grande temperature yesterday

Maximum temperature yesterday: 77 °F (at 2:00 AM)
Minimum temperature yesterday: 36 °F (at 8:00 AM)
Average temperature yesterday: 67 °F

Past Weeks' High & Low Weather Summary

High97 °F (Sep 19, 12:00 PM)100% (Sep 25, 7:00 PM)30.09 "Hg (Sep 25, 7:00 PM)
Low36 °F (Oct 3, 8:00 AM)19% (Sep 20, 12:00 PM)29.77 "Hg (Sep 23, 3:00 PM)
Average78 °F62%29.91 "Hg
* Reported Sep 19 6:00 AM — Oct 4 6:00 AM, Campo Grande, Weather by CustomWeather, © 2015

Note: Actual official high and low records may vary slightly from our data, if they occured in-between our weather recording intervals... More about our weather records


Campo Grande weather history for previous 24 hours

Time TempWeatherWind HumidityBarometerVisibility
6:00 AM
Sun, Oct 4
66 °FDrizzle. Fog.12 mph100%30.04 "Hg0 mi
5:00 AM66 °FFog.8 mph100%30.01 "Hg0 mi
4:00 AM66 °FPassing clouds.5 mph100%29.95 "HgN/A
3:00 AM66 °FPassing clouds.No wind100%29.92 "HgN/A
2:00 AM68 °FPassing clouds.No wind94%29.95 "HgN/A
1:00 AM68 °FPassing clouds.3 mph94%29.98 "HgN/A
12:00 AM70 °FPassing clouds.3 mph94%30.01 "HgN/A
11:00 PM
Sat, Oct 3
70 °FPartly cloudy.3 mph94%30.07 "HgN/A
10:00 PM68 °FPassing clouds.3 mph94%30.07 "HgN/A
9:00 PM70 °FPassing clouds.1 mph88%30.09 "HgN/A
8:00 PM70 °FPassing clouds.6 mph88%30.04 "HgN/A
7:00 PM70 °FPassing clouds.6 mph88%30.01 "HgN/A
6:00 PM70 °FPassing clouds.9 mph88%29.98 "HgN/A
5:00 PM72 °FPartly cloudy.9 mph88%29.98 "HgN/A
4:00 PM72 °FBroken clouds.12 mph88%29.98 "HgN/A
3:00 PM72 °FThundershowers. Broken clouds.10 mph88%N/AN/A
2:00 PM36 °FThundershowers. Partly sunny.13 mph100%29.98 "HgN/A
1:00 PM70 °FThunderstorms. Broken clouds.15 mph94%29.98 "HgN/A
12:00 PM68 °FThunderstorms. Fog.12 mph100%30.01 "Hg3 mi
11:00 AM70 °FThunderstorms. Fog.16 mph94%30.04 "Hg3 mi
10:00 AM70 °FThunderstorms. Broken clouds.14 mph100%N/A4 mi
9:00 AM36 °FLight rain. Broken clouds.15 mph100%30.01 "Hg5 mi
8:00 AM36 °FLight rain. Broken clouds.14 mph100%30.01 "Hg5 mi
7:00 AM72 °FBroken clouds.16 mph88%29.95 "Hg4 mi
Weather by CustomWeather, © 2015

See weather overviewHow to use our weather pages